Вернуться в каталог

SL-8 R/B

АктивенPO
NORAD 24773·ROCKET BODY·🇷🇺 Russia

Запущен Apr 17, 1997 с Plesetsk Cosmodrome

Loading…

Ближайшие Пролёты (ближайшие 24 часа)

TLE

СвежийSource: Space-Track

Эпоха: Sep 14, 2026, 08:11 UTC

1 24773U 97017B   26257.34162721  .00000112  00000-0  10301-3 0  9997
2 24773  82.9230  30.5143 0022937 269.8972 118.6387 13.73994838474151

Отслеживайте SL-8 R/B в реальном времени с AllMySat

Download on the App Store